Year,Month,Day,Hour,Minute,Value (Times are PST for temperature in C)
2015,06,17,00,00,16.10
2015,06,17,00,01,16.10
2015,06,17,00,02,16.10
2015,06,17,00,03,16.10
2015,06,17,00,04,16.10
2015,06,17,00,05,16.10
2015,06,17,00,06,16.10
2015,06,17,00,07,16.10
2015,06,17,00,08,16.10
2015,06,17,00,09,16.10
2015,06,17,00,10,16.10
2015,06,17,00,11,16.10
2015,06,17,00,12,16.10
2015,06,17,00,13,16.10
2015,06,17,00,14,16.10
2015,06,17,00,15,16.10
2015,06,17,00,16,16.10
2015,06,17,00,17,16.10
2015,06,17,00,18,16.10
2015,06,17,00,19,16.10
2015,06,17,00,20,16.10
2015,06,17,00,21,16.00
2015,06,17,00,22,16.00
2015,06,17,00,23,16.00
2015,06,17,00,24,16.00
2015,06,17,00,25,16.00
2015,06,17,00,26,16.00
2015,06,17,00,27,16.00
2015,06,17,00,28,16.00
2015,06,17,00,29,15.90
2015,06,17,00,30,15.90
2015,06,17,00,31,15.90
2015,06,17,00,32,15.90
2015,06,17,00,33,15.90
2015,06,17,00,34,15.90
2015,06,17,00,35,15.90
2015,06,17,00,36,15.90
2015,06,17,00,37,15.90
2015,06,17,00,38,15.80
2015,06,17,00,39,15.80
2015,06,17,00,40,15.80
2015,06,17,00,41,15.80
2015,06,17,00,42,15.80
2015,06,17,00,43,15.80
2015,06,17,00,44,15.80
2015,06,17,00,45,15.80
2015,06,17,00,46,15.80
2015,06,17,00,47,15.80
2015,06,17,00,48,15.80
2015,06,17,00,49,15.70
2015,06,17,00,50,15.70
2015,06,17,00,51,15.70
2015,06,17,00,52,15.70
2015,06,17,00,53,15.70
2015,06,17,00,54,15.70
2015,06,17,00,55,15.70
2015,06,17,00,56,15.70
2015,06,17,00,57,15.70
2015,06,17,00,58,15.70
2015,06,17,00,59,15.70
2015,06,17,01,00,15.70
2015,06,17,01,01,15.70
2015,06,17,01,02,15.70
2015,06,17,01,03,15.60
2015,06,17,01,04,15.60
2015,06,17,01,05,15.60
2015,06,17,01,06,15.60
2015,06,17,01,07,15.60
2015,06,17,01,08,15.60
2015,06,17,01,09,15.60
2015,06,17,01,10,15.60
2015,06,17,01,11,15.60
2015,06,17,01,12,15.60
2015,06,17,01,13,15.60
2015,06,17,01,14,15.60
2015,06,17,01,15,15.60
2015,06,17,01,16,15.60
2015,06,17,01,17,15.60
2015,06,17,01,18,15.60
2015,06,17,01,19,15.60
2015,06,17,01,20,15.60
2015,06,17,01,21,15.60
2015,06,17,01,22,15.50
2015,06,17,01,23,15.60
2015,06,17,01,24,15.60
2015,06,17,01,25,15.50
2015,06,17,01,26,15.50
2015,06,17,01,27,15.50
2015,06,17,01,28,15.50
2015,06,17,01,29,15.50
2015,06,17,01,30,15.50
2015,06,17,01,31,15.50
2015,06,17,01,32,15.50
2015,06,17,01,33,15.40
2015,06,17,01,34,15.40
2015,06,17,01,35,15.40
2015,06,17,01,36,15.40
2015,06,17,01,37,15.40
2015,06,17,01,38,15.40
2015,06,17,01,39,15.30
2015,06,17,01,40,15.30
2015,06,17,01,41,15.30
2015,06,17,01,42,15.30
2015,06,17,01,43,15.30
2015,06,17,01,44,15.30
2015,06,17,01,45,15.30
2015,06,17,01,46,15.30
2015,06,17,01,47,15.20
2015,06,17,01,48,15.20
2015,06,17,01,49,15.20
2015,06,17,01,50,15.20
2015,06,17,01,51,15.20
2015,06,17,01,52,15.20
2015,06,17,01,53,15.20
2015,06,17,01,54,15.10
2015,06,17,01,55,15.10
2015,06,17,01,56,15.10
2015,06,17,01,57,15.10
2015,06,17,01,58,15.10
2015,06,17,01,59,15.10
2015,06,17,02,00,15.10
2015,06,17,02,01,15.10
2015,06,17,02,02,15.00
2015,06,17,02,03,15.00
2015,06,17,02,04,15.00
2015,06,17,02,05,15.00
2015,06,17,02,06,15.00
2015,06,17,02,07,15.00
2015,06,17,02,08,15.00
2015,06,17,02,09,14.90
2015,06,17,02,10,14.90
2015,06,17,02,11,14.90
2015,06,17,02,12,14.90
2015,06,17,02,13,14.90
2015,06,17,02,14,14.90
2015,06,17,02,15,14.90
2015,06,17,02,16,14.90
2015,06,17,02,17,14.90
2015,06,17,02,18,14.90
2015,06,17,02,19,14.80
2015,06,17,02,20,14.80
2015,06,17,02,21,14.80
2015,06,17,02,22,14.80
2015,06,17,02,23,14.80
2015,06,17,02,24,14.80
2015,06,17,02,25,14.80
2015,06,17,02,26,14.80
2015,06,17,02,27,14.80
2015,06,17,02,28,14.80
2015,06,17,02,29,14.70
2015,06,17,02,30,14.70
2015,06,17,02,31,14.70
2015,06,17,02,32,14.70
2015,06,17,02,33,14.70
2015,06,17,02,34,14.70
2015,06,17,02,35,14.70
2015,06,17,02,36,14.70
2015,06,17,02,37,14.70
2015,06,17,02,38,14.70
2015,06,17,02,39,14.60
2015,06,17,02,40,14.60
2015,06,17,02,41,14.60
2015,06,17,02,42,14.60
2015,06,17,02,43,14.60
2015,06,17,02,44,14.60
2015,06,17,02,45,14.60
2015,06,17,02,46,14.60
2015,06,17,02,47,14.50
2015,06,17,02,48,14.50
2015,06,17,02,49,14.50
2015,06,17,02,50,14.50
2015,06,17,02,51,14.40
2015,06,17,02,52,14.40
2015,06,17,02,53,14.40
2015,06,17,02,54,14.40
2015,06,17,02,55,14.40
2015,06,17,02,56,14.40
2015,06,17,02,57,14.30
2015,06,17,02,58,14.30
2015,06,17,02,59,14.30
2015,06,17,03,00,14.30
2015,06,17,03,01,14.30
2015,06,17,03,02,14.30
2015,06,17,04,01,13.50
2015,06,17,04,02,13.50
2015,06,17,04,03,13.50
2015,06,17,04,04,13.50
2015,06,17,04,05,13.50
2015,06,17,04,06,13.50
2015,06,17,04,07,13.50
2015,06,17,04,08,13.50
2015,06,17,04,09,13.50
2015,06,17,04,10,13.50
2015,06,17,04,11,13.40
2015,06,17,04,12,13.40
2015,06,17,04,13,13.40
2015,06,17,04,14,13.40
2015,06,17,04,15,13.40
2015,06,17,04,16,13.40
2015,06,17,04,17,13.40
2015,06,17,04,18,13.30
2015,06,17,04,19,13.30
2015,06,17,04,20,13.30
2015,06,17,04,21,13.30
2015,06,17,04,22,13.20
2015,06,17,04,23,13.20
2015,06,17,04,24,13.20
2015,06,17,04,25,13.20
2015,06,17,04,26,13.20
2015,06,17,04,27,13.20
2015,06,17,04,28,13.10
2015,06,17,04,29,13.10
2015,06,17,04,30,13.10
2015,06,17,04,31,13.10
2015,06,17,04,32,13.00
2015,06,17,04,33,13.00
2015,06,17,04,34,13.00
2015,06,17,04,35,12.90
2015,06,17,04,36,12.90
2015,06,17,04,37,12.90
2015,06,17,04,38,12.90
2015,06,17,04,39,12.90
2015,06,17,04,40,12.90
2015,06,17,04,41,12.90
2015,06,17,04,42,12.90
2015,06,17,04,43,12.80
2015,06,17,04,44,12.80
2015,06,17,04,45,12.80
2015,06,17,04,46,12.80
2015,06,17,04,47,12.80
2015,06,17,04,48,12.80
2015,06,17,04,49,12.80
2015,06,17,04,50,12.80
2015,06,17,04,51,12.80
2015,06,17,04,52,12.80
2015,06,17,04,53,12.80
2015,06,17,04,54,12.80
2015,06,17,04,55,12.80
2015,06,17,04,56,12.80
2015,06,17,04,57,12.80
2015,06,17,04,58,12.80
2015,06,17,04,59,12.80
2015,06,17,05,00,12.80
2015,06,17,05,01,12.80
2015,06,17,05,02,12.80
2015,06,17,05,03,12.80
2015,06,17,05,04,12.80
2015,06,17,05,05,12.70
2015,06,17,05,06,12.70
2015,06,17,05,07,12.70
2015,06,17,05,08,12.70
2015,06,17,05,09,12.70
2015,06,17,05,10,12.70
2015,06,17,05,11,12.70
2015,06,17,05,12,12.60
2015,06,17,05,13,12.60
2015,06,17,05,14,12.60
2015,06,17,05,15,12.60
2015,06,17,05,16,12.60
2015,06,17,05,17,12.60
2015,06,17,05,18,12.60
2015,06,17,05,19,12.60
2015,06,17,05,20,12.60
2015,06,17,05,21,12.60
2015,06,17,05,22,12.60
2015,06,17,05,23,12.60
2015,06,17,05,24,12.60
2015,06,17,05,25,12.50
2015,06,17,05,26,12.50
2015,06,17,05,27,12.50
2015,06,17,05,28,12.50
2015,06,17,05,29,12.50
2015,06,17,05,30,12.50
2015,06,17,05,31,12.50
2015,06,17,05,32,12.50
2015,06,17,05,33,12.40
2015,06,17,05,34,12.50
2015,06,17,05,35,12.40
2015,06,17,05,36,12.40
2015,06,17,05,37,12.40
2015,06,17,05,38,12.40
2015,06,17,05,39,12.40
2015,06,17,05,40,12.40
2015,06,17,05,41,12.40
2015,06,17,05,42,12.50
2015,06,17,05,43,12.50
2015,06,17,05,44,12.50
2015,06,17,05,45,12.50
2015,06,17,05,46,12.60
2015,06,17,05,47,12.60
2015,06,17,05,48,12.60
2015,06,17,05,49,12.60
2015,06,17,05,50,12.60
2015,06,17,05,51,12.60
2015,06,17,05,52,12.60
2015,06,17,05,53,12.60
2015,06,17,05,54,12.70
2015,06,17,05,55,12.70
2015,06,17,05,56,12.70
2015,06,17,05,57,12.70
2015,06,17,05,58,12.70
2015,06,17,05,59,12.80
2015,06,17,06,00,12.80
2015,06,17,06,01,12.80
2015,06,17,06,02,12.80
2015,06,17,06,03,12.80
2015,06,17,06,04,12.90
2015,06,17,06,05,12.90
2015,06,17,06,06,12.90
2015,06,17,06,07,13.00
2015,06,17,06,08,13.00
2015,06,17,06,09,13.00
2015,06,17,06,10,13.10
2015,06,17,06,11,13.10
2015,06,17,06,12,13.10
2015,06,17,06,13,13.10
2015,06,17,06,14,13.10
2015,06,17,06,15,13.20
2015,06,17,06,16,13.20
2015,06,17,06,17,13.20
2015,06,17,06,18,13.20
2015,06,17,06,19,13.20
2015,06,17,06,20,13.30
2015,06,17,06,21,13.30
2015,06,17,06,22,13.40
2015,06,17,06,23,13.40
2015,06,17,06,24,13.40
2015,06,17,06,25,13.50
2015,06,17,06,26,13.50
2015,06,17,06,27,13.50
2015,06,17,06,28,13.60
2015,06,17,06,29,13.60
2015,06,17,06,30,13.60
2015,06,17,06,31,13.70
2015,06,17,06,32,13.70
2015,06,17,06,33,13.80
2015,06,17,06,34,13.80
2015,06,17,06,35,13.90
2015,06,17,06,36,14.00
2015,06,17,06,37,14.00
2015,06,17,06,38,14.00
2015,06,17,06,39,14.00
2015,06,17,06,40,13.90
2015,06,17,06,41,13.90
2015,06,17,06,42,13.90
2015,06,17,06,43,13.80
2015,06,17,06,44,13.80
2015,06,17,06,45,13.80
2015,06,17,06,46,13.80
2015,06,17,06,47,13.80
2015,06,17,06,48,13.80
2015,06,17,06,49,13.80
2015,06,17,06,50,13.80
2015,06,17,06,51,13.80
2015,06,17,06,52,13.80
2015,06,17,06,53,13.80
2015,06,17,06,54,13.80
2015,06,17,06,55,13.80
2015,06,17,06,56,13.80
2015,06,17,06,57,13.80
2015,06,17,06,58,13.70
2015,06,17,06,59,13.70
2015,06,17,07,00,13.70
2015,06,17,07,01,13.70
2015,06,17,07,02,13.70
2015,06,17,07,03,13.80
2015,06,17,07,04,13.80
2015,06,17,07,05,13.80
2015,06,17,07,06,13.80
2015,06,17,07,07,13.80
2015,06,17,07,08,13.80
2015,06,17,07,09,13.90
2015,06,17,07,10,13.90
2015,06,17,07,11,13.90
2015,06,17,07,12,13.90
2015,06,17,07,13,13.90
2015,06,17,07,14,13.90
2015,06,17,07,15,13.90
2015,06,17,07,16,13.90
2015,06,17,07,17,14.00
2015,06,17,07,18,13.90
2015,06,17,07,19,13.90
2015,06,17,07,20,13.90
2015,06,17,07,21,13.90
2015,06,17,07,22,13.90
2015,06,17,07,23,13.90
2015,06,17,07,24,13.90
2015,06,17,07,25,13.80
2015,06,17,07,26,13.80
2015,06,17,07,27,13.80
2015,06,17,07,28,13.80
2015,06,17,07,29,13.90
2015,06,17,07,30,13.90
2015,06,17,07,31,13.90
2015,06,17,07,32,14.00
2015,06,17,07,33,14.10
2015,06,17,07,34,14.20
2015,06,17,07,35,14.20
2015,06,17,07,36,14.20
2015,06,17,07,37,14.30
2015,06,17,07,38,14.30
2015,06,17,07,39,14.30
2015,06,17,07,40,14.30
2015,06,17,07,41,14.40
2015,06,17,07,42,14.40
2015,06,17,07,43,14.40
2015,06,17,07,44,14.40
2015,06,17,07,45,14.40
2015,06,17,07,46,14.40
2015,06,17,07,47,14.40
2015,06,17,07,48,14.40
2015,06,17,07,49,14.30
2015,06,17,07,50,14.30
2015,06,17,07,51,14.40
2015,06,17,07,52,14.40
2015,06,17,07,53,14.40
2015,06,17,07,54,14.50
2015,06,17,07,55,14.50
2015,06,17,07,56,14.50
2015,06,17,07,57,14.50
2015,06,17,07,58,14.60
2015,06,17,07,59,14.60
2015,06,17,08,00,14.60
2015,06,17,08,01,14.60
2015,06,17,08,02,14.70
2015,06,17,08,03,14.70
2015,06,17,08,04,14.70
2015,06,17,08,05,14.80
2015,06,17,08,06,14.80
2015,06,17,08,07,14.90
2015,06,17,08,08,15.00
2015,06,17,08,09,15.10
2015,06,17,08,10,15.10
2015,06,17,08,11,15.20
2015,06,17,08,12,15.20
2015,06,17,08,13,15.20
2015,06,17,08,14,15.30
2015,06,17,08,15,15.30
2015,06,17,08,16,15.40
2015,06,17,08,17,15.50
2015,06,17,08,18,15.50
2015,06,17,08,19,15.60
2015,06,17,08,20,15.60
2015,06,17,08,21,15.70
2015,06,17,08,22,15.70
2015,06,17,08,23,15.80
2015,06,17,08,24,15.90
2015,06,17,08,25,16.00
2015,06,17,08,26,16.00
2015,06,17,08,27,16.10
2015,06,17,08,28,16.10
2015,06,17,08,29,16.10
2015,06,17,08,30,16.10
2015,06,17,08,31,16.00
2015,06,17,08,32,16.00
2015,06,17,08,33,16.00
2015,06,17,08,34,15.90
2015,06,17,08,35,15.90
2015,06,17,08,36,15.90
2015,06,17,08,37,15.80
2015,06,17,08,38,15.80
2015,06,17,08,39,15.80
2015,06,17,08,40,15.80
2015,06,17,08,41,15.80
2015,06,17,08,42,15.80
2015,06,17,08,43,15.80
2015,06,17,08,44,15.80
2015,06,17,08,45,15.80
2015,06,17,08,46,15.80
2015,06,17,08,47,15.70
2015,06,17,08,48,15.70
2015,06,17,08,49,15.70
2015,06,17,08,50,15.60
2015,06,17,08,51,15.60
2015,06,17,08,52,15.60
2015,06,17,08,53,15.60
2015,06,17,08,54,15.60
2015,06,17,08,55,15.70
2015,06,17,08,56,15.70
2015,06,17,08,57,15.70
2015,06,17,08,58,15.70
2015,06,17,08,59,15.70
2015,06,17,09,00,15.70
2015,06,17,09,01,15.70
2015,06,17,09,02,15.70
2015,06,17,09,03,15.80
2015,06,17,09,04,15.80
2015,06,17,09,05,15.80
2015,06,17,09,06,15.90
2015,06,17,09,07,15.90
2015,06,17,09,08,16.00
2015,06,17,09,09,16.00
2015,06,17,09,10,16.10
2015,06,17,09,11,16.10
2015,06,17,09,12,16.20
2015,06,17,09,13,16.30
2015,06,17,09,14,16.30
2015,06,17,09,15,16.30
2015,06,17,09,16,16.40
2015,06,17,09,17,16.40
2015,06,17,09,18,16.40
2015,06,17,09,19,16.40
2015,06,17,09,20,16.40
2015,06,17,09,21,16.30
2015,06,17,09,22,16.30
2015,06,17,09,23,16.40
2015,06,17,09,24,16.40
2015,06,17,09,25,16.50
2015,06,17,09,26,16.50
2015,06,17,09,27,16.40
2015,06,17,09,28,16.40
2015,06,17,09,29,16.40
2015,06,17,09,30,16.40
2015,06,17,09,31,16.40
2015,06,17,09,32,16.40
2015,06,17,09,33,16.40
2015,06,17,09,34,16.50
2015,06,17,09,35,16.50
2015,06,17,09,36,16.50
2015,06,17,09,37,16.60
2015,06,17,09,38,16.60
2015,06,17,09,39,16.60
2015,06,17,09,40,16.60
2015,06,17,09,41,16.60
2015,06,17,09,42,16.60
2015,06,17,09,43,16.60
2015,06,17,09,44,16.60
2015,06,17,09,45,16.60
2015,06,17,09,46,16.50
2015,06,17,09,47,16.40
2015,06,17,09,48,16.30
2015,06,17,09,49,16.20
2015,06,17,09,50,16.20
2015,06,17,09,51,16.10
2015,06,17,09,52,16.10
2015,06,17,09,53,16.10
2015,06,17,09,54,16.10
2015,06,17,09,55,16.10
2015,06,17,09,56,16.10
2015,06,17,09,57,16.10
2015,06,17,09,58,16.20
2015,06,17,09,59,16.20
2015,06,17,10,00,16.20
2015,06,17,10,01,16.20
2015,06,17,10,02,16.30
2015,06,17,10,03,16.30
2015,06,17,10,04,16.40
2015,06,17,10,05,16.40
2015,06,17,10,06,16.40
2015,06,17,10,07,16.40
2015,06,17,10,08,16.40
2015,06,17,10,09,16.40
2015,06,17,10,10,16.50
2015,06,17,10,11,16.50
2015,06,17,10,12,16.50
2015,06,17,10,13,16.50
2015,06,17,10,14,16.50
2015,06,17,10,15,16.50
2015,06,17,10,16,16.50
2015,06,17,10,17,16.50
2015,06,17,10,18,16.50
2015,06,17,10,19,16.50
2015,06,17,10,20,16.50
2015,06,17,10,21,16.60
2015,06,17,10,22,16.60
2015,06,17,10,23,16.50
2015,06,17,10,24,16.50
2015,06,17,10,25,16.50
2015,06,17,10,26,16.50
2015,06,17,10,27,16.50
2015,06,17,10,28,16.40
2015,06,17,10,29,16.40
2015,06,17,10,30,16.50
2015,06,17,10,31,16.50
2015,06,17,10,32,16.60
2015,06,17,10,33,16.60
2015,06,17,10,34,16.70
2015,06,17,10,35,16.70
2015,06,17,10,36,16.70
2015,06,17,10,37,16.80
2015,06,17,10,38,16.80
2015,06,17,10,39,16.80
2015,06,17,10,40,16.80
2015,06,17,10,41,16.90
2015,06,17,10,42,16.90
2015,06,17,10,43,16.90
2015,06,17,10,44,16.90
2015,06,17,10,45,16.90
2015,06,17,10,46,16.90
2015,06,17,10,47,16.90
2015,06,17,10,48,16.80
2015,06,17,10,49,16.80
2015,06,17,10,50,16.90
2015,06,17,10,51,16.90
2015,06,17,10,52,16.80
2015,06,17,10,53,16.80
2015,06,17,10,54,16.90
2015,06,17,10,55,16.90
2015,06,17,10,56,16.90
2015,06,17,10,57,16.90
2015,06,17,10,58,16.90
2015,06,17,10,59,16.80
2015,06,17,11,00,16.80
2015,06,17,11,01,16.80
2015,06,17,11,02,16.90
2015,06,17,11,03,16.90
2015,06,17,11,04,17.00
2015,06,17,11,05,17.10
2015,06,17,11,06,17.10
2015,06,17,11,07,17.20
2015,06,17,11,08,17.30
2015,06,17,11,09,17.30
2015,06,17,11,10,17.30
2015,06,17,11,11,17.30
2015,06,17,11,12,17.30
2015,06,17,11,13,17.20
2015,06,17,11,14,17.20
2015,06,17,11,15,17.20
2015,06,17,11,16,17.20
2015,06,17,11,17,17.10
2015,06,17,11,18,17.10
2015,06,17,11,19,17.10
2015,06,17,11,20,17.10
2015,06,17,11,21,17.20
2015,06,17,11,22,17.20
2015,06,17,11,23,17.30
2015,06,17,11,24,17.30
2015,06,17,11,25,17.30
2015,06,17,11,26,17.40
2015,06,17,11,27,17.40
2015,06,17,11,28,17.30
2015,06,17,11,29,17.40
2015,06,17,11,30,17.40
2015,06,17,11,31,17.50
2015,06,17,11,32,17.50
2015,06,17,11,33,17.60
2015,06,17,11,34,17.60
2015,06,17,11,35,17.60
2015,06,17,11,36,17.60
2015,06,17,11,37,17.70
2015,06,17,11,38,17.70
2015,06,17,11,39,17.80
2015,06,17,11,40,17.80
2015,06,17,11,41,17.70
2015,06,17,11,42,17.70
2015,06,17,11,43,17.60
2015,06,17,11,44,17.60
2015,06,17,11,45,17.60
2015,06,17,11,46,17.60
2015,06,17,11,47,17.60
2015,06,17,11,48,17.60
2015,06,17,11,49,17.60
2015,06,17,11,50,17.50
2015,06,17,11,51,17.60
2015,06,17,11,52,17.60
2015,06,17,11,53,17.60
2015,06,17,11,54,17.60
2015,06,17,11,55,17.70
2015,06,17,11,56,17.80
2015,06,17,11,57,17.90
2015,06,17,11,58,18.00
2015,06,17,11,59,18.10
2015,06,17,12,00,18.10
2015,06,17,12,01,18.10
2015,06,17,12,02,18.10
2015,06,17,12,03,18.20
2015,06,17,12,04,18.10
2015,06,17,12,05,18.20
2015,06,17,12,06,18.20
2015,06,17,12,07,18.20
2015,06,17,12,08,18.20
2015,06,17,12,09,18.20
2015,06,17,12,10,18.20
2015,06,17,12,11,18.10
2015,06,17,12,12,18.00
2015,06,17,12,13,17.90
2015,06,17,12,14,17.80
2015,06,17,12,15,17.80
2015,06,17,12,16,17.80
2015,06,17,12,17,17.90
2015,06,17,12,18,17.90
2015,06,17,12,19,17.80
2015,06,17,12,20,17.80
2015,06,17,12,21,17.70
2015,06,17,12,22,17.70
2015,06,17,12,23,17.60
2015,06,17,12,24,17.50
2015,06,17,12,25,17.50
2015,06,17,12,26,17.40
2015,06,17,12,27,17.40
2015,06,17,12,28,17.40
2015,06,17,12,29,17.40
2015,06,17,12,30,17.40
2015,06,17,12,31,17.40
2015,06,17,12,32,17.40
2015,06,17,12,33,17.40
2015,06,17,12,34,17.40
2015,06,17,12,35,17.40
2015,06,17,12,36,17.40
2015,06,17,12,37,17.40
2015,06,17,12,38,17.40
2015,06,17,12,39,17.40
2015,06,17,12,40,17.50
2015,06,17,12,41,17.50
2015,06,17,12,42,17.50
2015,06,17,12,43,17.40
2015,06,17,12,44,17.40
2015,06,17,12,45,17.40
2015,06,17,12,46,17.40
2015,06,17,12,47,17.50
2015,06,17,12,48,17.60
2015,06,17,12,49,17.60
2015,06,17,12,50,17.60
2015,06,17,12,51,17.60
2015,06,17,12,52,17.50
2015,06,17,12,53,17.50
2015,06,17,12,54,17.50
2015,06,17,12,55,17.60
2015,06,17,12,56,17.60
2015,06,17,12,57,17.50
2015,06,17,12,58,17.50
2015,06,17,12,59,17.50
2015,06,17,13,00,17.60
2015,06,17,13,01,17.60
2015,06,17,13,02,17.70
2015,06,17,13,03,17.70
2015,06,17,13,04,17.70
2015,06,17,13,05,17.60
2015,06,17,13,06,17.50
2015,06,17,13,07,17.40
2015,06,17,13,08,17.40
2015,06,17,13,09,17.40
2015,06,17,13,10,17.50
2015,06,17,13,11,17.70
2015,06,17,13,12,17.70
2015,06,17,13,13,17.70
2015,06,17,13,14,17.70
2015,06,17,13,15,17.60
2015,06,17,13,16,17.60
2015,06,17,13,17,17.60
2015,06,17,13,18,17.50
2015,06,17,13,19,17.50
2015,06,17,13,20,17.50
2015,06,17,13,21,17.60
2015,06,17,13,22,17.60
2015,06,17,13,23,17.60
2015,06,17,13,24,17.70
2015,06,17,13,25,17.70
2015,06,17,13,26,17.80
2015,06,17,13,27,17.80
2015,06,17,13,28,17.90
2015,06,17,13,29,17.90
2015,06,17,13,30,17.90
2015,06,17,13,31,18.00
2015,06,17,13,32,18.00
2015,06,17,13,33,18.10
2015,06,17,13,34,18.10
2015,06,17,13,35,18.20
2015,06,17,13,36,18.20
2015,06,17,13,37,18.30
2015,06,17,13,38,18.40
2015,06,17,13,39,18.60
2015,06,17,13,40,18.60
2015,06,17,13,41,18.60
2015,06,17,13,42,18.60
2015,06,17,13,43,18.60
2015,06,17,13,44,18.60
2015,06,17,13,45,18.60
2015,06,17,13,46,18.50
2015,06,17,13,47,18.50
2015,06,17,13,48,18.40
2015,06,17,13,49,18.40
2015,06,17,13,50,18.50
2015,06,17,13,51,18.50
2015,06,17,13,52,18.60
2015,06,17,13,53,18.60
2015,06,17,13,54,18.50
2015,06,17,13,55,18.50
2015,06,17,13,56,18.50
2015,06,17,13,57,18.60
2015,06,17,13,58,18.60
2015,06,17,13,59,18.60
2015,06,17,14,00,18.60
2015,06,17,14,01,18.70
2015,06,17,14,02,18.70
2015,06,17,14,03,18.70
2015,06,17,14,04,18.60
2015,06,17,14,05,18.60
2015,06,17,14,06,18.50
2015,06,17,14,07,18.40
2015,06,17,14,08,18.40
2015,06,17,14,09,18.30
2015,06,17,14,10,18.30
2015,06,17,14,11,18.40
2015,06,17,14,12,18.40
2015,06,17,14,13,18.40
2015,06,17,14,14,18.50
2015,06,17,14,15,18.50
2015,06,17,14,16,18.50
2015,06,17,14,17,18.60
2015,06,17,14,18,18.60
2015,06,17,14,19,18.70
2015,06,17,14,20,18.80
2015,06,17,14,21,18.90
2015,06,17,14,22,19.00
2015,06,17,14,23,18.90
2015,06,17,14,24,18.90
2015,06,17,14,25,18.90
2015,06,17,14,26,18.90
2015,06,17,14,27,18.90
2015,06,17,14,28,18.80
2015,06,17,14,29,18.80
2015,06,17,14,30,18.90
2015,06,17,14,31,18.90
2015,06,17,14,32,19.00
2015,06,17,14,33,18.90
2015,06,17,14,34,18.90
2015,06,17,14,35,19.00
2015,06,17,14,36,19.00
2015,06,17,14,37,19.10
2015,06,17,14,38,19.10
2015,06,17,14,39,19.10
2015,06,17,14,40,19.10
2015,06,17,14,41,19.10
2015,06,17,14,42,19.10
2015,06,17,14,43,19.00
2015,06,17,14,44,18.90
2015,06,17,14,45,18.90
2015,06,17,14,46,18.80
2015,06,17,14,47,18.80
2015,06,17,14,48,18.80
2015,06,17,14,49,18.80
2015,06,17,14,50,18.80
2015,06,17,14,51,18.90
2015,06,17,14,52,18.90
2015,06,17,14,53,18.90
2015,06,17,14,54,19.00
2015,06,17,14,55,19.00
2015,06,17,14,56,19.10
2015,06,17,14,57,19.10
2015,06,17,14,58,19.10
2015,06,17,14,59,19.10
2015,06,17,15,00,19.00
2015,06,17,15,01,18.90
2015,06,17,15,02,18.90
2015,06,17,15,03,18.80
2015,06,17,15,04,18.80
2015,06,17,15,05,18.80
2015,06,17,15,06,18.80
2015,06,17,15,07,18.80
2015,06,17,15,08,18.80
2015,06,17,15,09,18.90
2015,06,17,15,10,18.90
2015,06,17,15,11,19.00
2015,06,17,15,12,19.00
2015,06,17,15,13,18.90
2015,06,17,15,14,18.80
2015,06,17,15,15,18.70
2015,06,17,15,16,18.70
2015,06,17,15,17,18.70
2015,06,17,15,18,18.70
2015,06,17,15,19,18.70
2015,06,17,15,20,18.80
2015,06,17,15,21,18.90
2015,06,17,15,22,18.90
2015,06,17,15,23,18.90
2015,06,17,15,24,18.90
2015,06,17,15,25,18.90
2015,06,17,15,26,18.90
2015,06,17,15,27,18.90
2015,06,17,15,28,19.00
2015,06,17,15,29,19.10
2015,06,17,15,30,19.10
2015,06,17,15,31,19.10
2015,06,17,15,32,19.10
2015,06,17,15,33,19.10
2015,06,17,15,34,19.10
2015,06,17,15,35,19.10
2015,06,17,15,36,19.10
2015,06,17,15,37,19.10
2015,06,17,15,38,19.20
2015,06,17,15,39,19.20
2015,06,17,15,40,19.20
2015,06,17,15,41,19.20
2015,06,17,15,42,19.10
2015,06,17,15,43,19.10
2015,06,17,15,44,19.00
2015,06,17,15,45,19.00
2015,06,17,15,46,18.90
2015,06,17,15,47,18.90
2015,06,17,15,48,18.90
2015,06,17,15,49,18.90
2015,06,17,15,50,18.90
2015,06,17,15,51,19.00
2015,06,17,15,52,19.10
2015,06,17,15,53,19.10
2015,06,17,15,54,19.20
2015,06,17,15,55,19.20
2015,06,17,15,56,19.20
2015,06,17,15,57,19.20
2015,06,17,15,58,19.10
2015,06,17,15,59,19.10
2015,06,17,16,00,19.10
2015,06,17,16,01,19.10
2015,06,17,16,02,19.20
2015,06,17,16,03,19.20
2015,06,17,16,04,19.20
2015,06,17,16,05,19.20
2015,06,17,16,06,19.10
2015,06,17,16,07,19.10
2015,06,17,16,08,19.00
2015,06,17,16,09,19.00
2015,06,17,16,10,19.00
2015,06,17,16,11,18.90
2015,06,17,16,12,18.90
2015,06,17,16,13,18.90
2015,06,17,16,14,18.80
2015,06,17,16,15,18.80
2015,06,17,16,16,18.80
2015,06,17,16,17,18.90
2015,06,17,16,18,18.90
2015,06,17,16,19,18.90
2015,06,17,16,20,18.90
2015,06,17,16,21,18.80
2015,06,17,16,22,18.80
2015,06,17,16,23,18.80
2015,06,17,16,24,18.80
2015,06,17,16,25,18.80
2015,06,17,16,26,18.80
2015,06,17,16,27,18.70
2015,06,17,16,28,18.60
2015,06,17,16,29,18.60
2015,06,17,16,30,18.60
2015,06,17,16,31,18.60
2015,06,17,16,32,18.70
2015,06,17,16,33,18.70
2015,06,17,16,34,18.70
2015,06,17,16,35,18.70
2015,06,17,16,36,18.70
2015,06,17,16,37,18.60
2015,06,17,16,38,18.60
2015,06,17,16,39,18.50
2015,06,17,16,40,18.60
2015,06,17,16,41,18.60
2015,06,17,16,42,18.60
2015,06,17,16,43,18.60
2015,06,17,16,44,18.50
2015,06,17,16,45,18.50
2015,06,17,16,46,18.60
2015,06,17,16,47,18.60
2015,06,17,16,48,18.60
2015,06,17,16,49,18.60
2015,06,17,16,50,18.60
2015,06,17,16,51,18.60
2015,06,17,16,52,18.60
2015,06,17,16,53,18.60
2015,06,17,16,54,18.60
2015,06,17,16,55,18.60
2015,06,17,16,56,18.70
2015,06,17,16,57,18.70
2015,06,17,16,58,18.70
2015,06,17,16,59,18.70
2015,06,17,17,00,18.80
2015,06,17,17,01,18.80
2015,06,17,17,02,18.90
2015,06,17,17,03,18.90
2015,06,17,17,04,19.00
2015,06,17,17,05,19.00
2015,06,17,17,06,19.10
2015,06,17,17,07,19.10
2015,06,17,17,08,19.20
2015,06,17,17,09,19.20
2015,06,17,17,10,19.20
2015,06,17,17,11,19.20
2015,06,17,17,12,19.10
2015,06,17,17,13,19.10
2015,06,17,17,14,19.00
2015,06,17,17,15,19.00
2015,06,17,17,16,19.00
2015,06,17,17,17,19.00
2015,06,17,17,18,19.10
2015,06,17,17,19,19.00
2015,06,17,17,20,19.00
2015,06,17,17,21,18.90
2015,06,17,17,22,19.00
2015,06,17,17,23,19.00
2015,06,17,17,24,19.10
2015,06,17,17,25,19.10
2015,06,17,17,26,19.10
2015,06,17,17,27,19.10
2015,06,17,17,28,19.10
2015,06,17,17,29,19.10
2015,06,17,17,30,19.10
2015,06,17,17,31,19.20
2015,06,17,17,32,19.20
2015,06,17,17,33,19.30
2015,06,17,17,34,19.30
2015,06,17,17,35,19.40
2015,06,17,17,36,19.50
2015,06,17,17,37,19.50
2015,06,17,17,38,19.50
2015,06,17,17,39,19.50
2015,06,17,17,40,19.50
2015,06,17,17,41,19.50
2015,06,17,17,42,19.60
2015,06,17,17,43,19.60
2015,06,17,17,44,19.70
2015,06,17,17,45,19.70
2015,06,17,17,46,19.70
2015,06,17,17,47,19.70
2015,06,17,17,48,19.80
2015,06,17,17,49,19.80
2015,06,17,17,50,19.90
2015,06,17,17,51,19.90
2015,06,17,17,52,19.90
2015,06,17,17,53,19.90
2015,06,17,17,54,19.80
2015,06,17,17,55,19.80
2015,06,17,17,56,19.90
2015,06,17,17,57,19.90
2015,06,17,17,58,19.90
2015,06,17,17,59,19.90
2015,06,17,18,00,19.90
2015,06,17,18,01,19.80
2015,06,17,18,02,19.80
2015,06,17,18,03,19.80
2015,06,17,18,04,19.80
2015,06,17,18,05,19.90
2015,06,17,18,06,19.90
2015,06,17,18,07,19.80
2015,06,17,18,08,19.80
2015,06,17,18,09,19.70
2015,06,17,18,10,19.70
2015,06,17,18,11,19.60
2015,06,17,18,12,19.60
2015,06,17,18,13,19.50
2015,06,17,18,14,19.40
2015,06,17,18,15,19.40
2015,06,17,18,16,19.30
2015,06,17,18,17,19.20